Dewpoint
-5 -6 -5 -2 -1 -1 -1 -1 1 -1 -2 -4 -6 -6 -3 -4 -4 -3 -3 -4 -1 3 5 5 6 8 9 9 9 8 8 8 9 9 9 9 10 9 9 9 9 9 8 8
-1 -4 -3 -3 -3 -3 -3 -2 -2 -2 -2 -6 -6 -5 -4 -6 -5 -4 -4 -3 -2 -1 3 5 6 7 8 8 9 9 9 8 9 9 9 9 9 9 9 9 9 8 8 8
2 -4 0 2 -3 -3 -1 0 -0 -0 -3 -5 -5 -4 -3 -4 -4 -4 -3 -2 -1 -1 -1 2 6 7 7 8 8 9 9 9 9 9 9 9 9 9 9 9 8 8 8 8
3 -0 2 -5 0 1 3 3 3 0 -4 -6 -5 -5 -4 -5 -3 -1 -1 -0 0 -1 -0 -0 1 5 7 8 8 9 9 9 9 9 8 8 8 8 8 8 8 8 8 8
3 1 -2 -5 -3 -0 2 3 3 3 -5 -6 -7 -6 -5 -4 -0 1 2 3 4 4 3 1 -1 1 6 7 7 8 9 9 8 8 8 8 8 8 8 8 9 9 8 9
1 1 2 3 -0 2 2 6 5 5 3 0 0 4 3 3 4 4 5 5 6 6 4 2 1 -0 3 7 7 7 8 8 8 8 8 8 8 8 8 9 9 9 8 8
2 1 1 1 0 2 6 8 4 5 5 6 3 2 3 3 4 5 6 6 5 7 7 7 5 2 2 5 7 7 7 8 8 8 8 9 9 9 8 8 8 8 7 7
2 1 3 -1 1 5 5 5 5 6 5 5 6 1 1 4 5 6 6 6 4 5 5 6 7 6 7 6 7 8 7 8 9 9 9 9 9 8 8 8 8 7 7 6
-1 -1 3 -1 3 2 2 3 2 3 3 4 3 2 2 4 6 7 6 6 6 6 6 7 7 7 8 8 8 8 8 9 9 8 8 8 8 8 7 6 7 5 4 3
4 3 3 -0 2 1 1 1 1 1 3 3 3 2 2 5 6 6 5 5 6 7 7 6 6 7 7 7 7 7 7 7 7 6 6 5 5 6 5 4 4 3 2 1
-4 2 1 3 1 1 1 1 0 1 3 3 5 5 5 5 4 3 4 4 4 4 7 5 4 4 4 5 6 7 6 6 5 4 4 4 3 2 2 2 2 1 -1 -1
5 2 1 0 1 0 0 0 -0 -0 0 1 2 3 2 1 1 2 2 2 2 1 2 3 3 3 3 4 4 5 5 3 3 3 2 2 1 0 -1 -2 -2 -2 -3 -2
1 -0 0 1 1 -1 -0 -0 -0 -1 -1 -0 0 -0 -1 1 1 1 1 1 1 1 1 0 3 4 3 2 3 5 4 2 1 -0 0 0 -0 -1 -2 -4 -4 -5 -5 -5
-2 -1 -0 -0 -0 -2 -2 -1 -1 -1 -2 -1 -1 -2 -1 1 2 1 -0 -1 -1 -0 0 1 2 2 0 1 2 2 1 0 -0 -2 -3 -3 -3 -4 -5 -6 -7 -8 -8 -8
-3 -3 -1 -1 -2 -3 -3 -3 -2 -2 -3 -3 -4 -4 -4 -4 -2 0 -2 -2 -2 -1 -1 -1 -1 -2 -2 -1 -0 -1 -1 -2 -3 -4 -5 -6 -6 -6 -7 -7 -8 -10 -10 -10
-4 -3 -3 -3 -3 -3 -4 -4 -4 -4 -4 -5 -6 -6 -6 -6 -4 -4 -4 -4 -2 -3 -3 -3 -3 -4 -3 -2 -2 -3 -4 -5 -5 -5 -6 -7 -7 -8 -9 -10 -11 -11 -12 -13
-5 -4 -4 -4 -4 -4 -5 -6 -5 -6 -6 -7 -8 -9 -7 -7 -7 -6 -7 -6 -5 -6 -5 -5 -6 -5 -5 -4 -4 -5 -5 -6 -7 -7 -8 -9 -9 -10 -10 -11 -11 -12 -13 -13
-6 -6 -5 -5 -5 -5 -6 -8 -8 -8 -8 -9 -10 -10 -10 -9 -10 -10 -10 -10 -8 -7 -7 -7 -6 -6 -6 -6 -6 -6 -7 -7 -8 -8 -9 -10 -11 -12 -13 -13 -14 -15 -16 -19
-8 -8 -8 -8 -7 -7 -8 -9 -10 -10 -10 -10 -10 -11 -11 -11 -12 -12 -11 -12 -11 -10 -11 -9 -8 -7 -7 -7 -7 -8 -8 -9 -10 -12 -12 -13 -13 -14 -14 -15 -15 -16 -16 -17
-9 -9 -10 -10 -10 -10 -11 -12 -12 -11 -12 -11 -11 -11 -12 -12 -11 -11 -10 -11 -14 -14 -12 -10 -9 -9 -9 -9 -9 -11 -13 -15 -17 -17 -16 -17 -19 -23 -24 -18 -17 -17 -18 -18
-11 -11 -12 -12 -12 -12 -12 -13 -13 -13 -13 -12 -12 -12 -13 -13 -12 -12 -12 -13 -13 -12 -11 -10 -11 -15 -19 -23 -27 -29 -29 -26 -22 -19 -18 -17 -17 -17 -18 -18 -18 -18 -19 -19
-12 -12 -12 -13 -13 -13 -13 -13 -13 -13 -13 -13 -13 -12 -12 -13 -13 -12 -13 -14 -14 -13 -16 -27 -33 -34 -34 -35 -33 -29 -27 -25 -21 -19 -18 -18 -18 -18 -19 -20 -20 -20 -19 -20
-12 -13 -13 -14 -14 -14 -14 -14 -14 -13 -13 -13 -13 -13 -13 -14 -15 -14 -14 -16 -24 -33 -35 -35 -33 -33 -34 -32 -31 -30 -30 -29 -27 -25 -23 -23 -22 -22 -25 -25 -21 -23 -24 -26
-13 -13 -13 -14 -14 -14 -14 -14 -14 -14 -13 -14 -14 -15 -14 -14 -15 -20 -30 -32 -33 -34 -33 -32 -32 -32 -33 -32 -31 -29 -28 -27 -27 -27 -28 -27 -25 -26 -25 -28 -27 -26 -26 -26
-13 -13 -13 -13 -14 -14 -14 -14 -14 -14 -14 -14 -15 -17 -20 -19 -20 -22 -28 -31 -31 -31 -31 -31 -31 -31 -31 -31 -30 -30 -30 -30 -29 -27 -27 -27 -26 -27 -27 -27 -27 -27 -26 -26
-12 -13 -13 -13 -13 -14 -14 -14 -15 -15 -16 -16 -18 -20 -21 -26 -29 -29 -30 -30 -29 -30 -30 -30 -30 -30 -31 -31 -31 -30 -28 -28 -29 -29 -29 -28 -28 -28 -28 -27 -27 -26 -26 -25
-13 -13 -13 -14 -14 -14 -14 -15 -15 -16 -17 -17 -18 -19 -22 -26 -28 -26 -27 -28 -29 -29 -30 -31 -31 -31 -31 -30 -30 -30 -29 -29 -29 -29 -28 -28 -27 -27 -27 -27 -26 -26 -25 -25
Wind_Speed
15 19 16 17 14 14 18 17 18 17 20 18 18 18 20 19 8 9 11 6 4 12 19 24 28 30 32 31 32 33 33 33 36 37 33 32 33 34 36 40 39 38 39 37
13 15 20 21 20 21 19 19 23 22 25 20 15 17 16 21 22 15 14 11 5 6 12 18 24 29 32 33 33 33 35 37 32 32 30 33 33 34 34 35 36 35 36 35
12 15 11 13 20 21 17 17 20 21 21 21 18 13 14 15 17 21 10 11 11 8 8 13 20 23 28 31 32 35 33 31 30 30 30 31 30 29 30 32 32 34 33 32
5 9 10 10 5 3 7 13 20 25 25 21 19 15 19 18 11 7 11 12 13 7 8 8 12 19 22 25 29 34 34 32 32 31 29 29 29 29 29 29 30 31 32 33
4 8 14 21 10 3 5 15 20 22 21 18 25 23 20 15 2 4 8 10 9 12 12 10 8 14 21 23 26 29 31 32 32 32 30 30 31 30 26 32 37 35 33 33
8 9 6 5 5 6 6 8 17 22 17 3 5 8 2 9 6 4 6 9 12 12 14 12 12 13 18 21 23 27 26 25 25 26 26 26 28 38 42 38 34 33 30 28
12 11 9 3 8 9 3 7 27 30 19 25 5 7 3 4 7 7 8 11 13 11 8 6 6 12 18 18 22 22 20 19 22 24 27 34 39 36 35 32 27 25 24 20
12 10 13 11 2 2 2 7 9 14 21 24 31 6 8 9 8 5 7 11 12 15 10 6 4 8 9 14 25 32 35 36 32 31 33 32 28 26 24 24 25 24 22 20
4 6 4 10 15 12 14 12 16 18 15 13 23 12 9 4 7 7 8 8 9 10 7 7 5 8 16 22 24 22 24 27 25 25 23 23 24 24 22 22 23 22 21 20
3 5 6 10 10 15 16 16 19 19 19 16 19 14 11 4 4 6 7 6 7 5 7 1 1 6 13 17 18 20 24 26 27 26 26 25 23 20 19 17 18 21 21 21
6 13 13 11 14 12 16 17 20 20 17 18 16 12 8 7 7 7 5 5 5 6 8 7 7 9 11 16 19 24 26 25 24 22 22 22 20 19 17 17 15 18 19 21
4 8 8 11 15 15 18 19 18 18 18 15 15 12 9 10 7 6 6 7 8 13 15 12 13 15 14 14 18 21 23 24 24 23 23 24 24 26 19 17 17 17 16 14
7 14 12 9 6 17 19 19 17 15 15 15 13 11 9 8 9 9 9 10 12 12 11 16 16 12 9 9 16 19 20 22 23 24 26 26 24 25 29 25 21 20 18 17
11 16 7 15 12 18 18 17 14 12 13 12 11 10 9 6 6 8 10 12 12 13 16 14 14 16 15 13 14 18 23 23 23 23 24 26 27 28 28 27 24 22 15 12
15 12 8 12 14 16 16 15 12 12 12 11 10 7 7 7 7 8 9 11 11 13 15 13 14 17 13 15 22 25 24 25 26 27 26 25 24 23 22 20 19 16 13 10
14 9 8 10 11 12 13 13 11 11 9 8 8 8 5 6 8 10 11 12 13 17 19 20 21 22 19 19 22 25 26 25 25 25 23 22 20 20 19 17 16 15 14 14
13 10 14 13 13 11 10 9 7 6 6 7 7 6 6 9 13 16 19 19 23 25 26 26 28 26 25 24 25 27 26 24 23 22 21 19 18 17 15 13 12 10 10 9
8 8 9 10 10 8 6 6 5 2 2 2 5 8 12 15 21 24 24 24 27 30 28 26 25 23 23 21 21 21 20 20 19 19 19 18 17 16 14 13 12 10 8 6
10 9 8 7 6 3 3 4 5 4 4 6 10 14 17 22 25 27 28 21 26 28 24 21 19 20 20 20 19 18 18 17 17 16 15 15 14 13 13 11 10 9 7 7
9 8 8 7 4 4 5 7 8 10 11 12 17 22 25 24 21 22 20 20 23 20 19 19 18 18 17 16 14 14 13 13 13 13 13 12 12 12 11 11 10 9 8 7
9 9 9 9 9 8 9 10 13 16 18 20 24 26 26 25 22 19 19 23 18 15 15 14 14 14 13 12 11 12 13 13 13 13 12 12 12 11 10 9 7 6 6 5
9 10 11 13 14 16 15 16 18 20 22 23 23 22 20 19 18 19 19 17 13 11 11 11 12 12 12 12 13 14 14 14 13 12 12 11 10 9 8 7 6 5 5 4
11 11 13 14 16 17 18 19 21 22 22 21 19 19 19 18 15 15 16 13 11 11 12 14 14 13 12 13 14 14 13 12 11 10 9 8 7 6 5 4 4 3 3 4
13 14 16 17 18 19 21 20 20 20 20 20 19 17 15 14 15 15 14 12 11 10 13 14 13 11 11 12 12 11 11 10 9 8 7 6 5 4 3 3 3 4 5 6
14 15 15 15 17 18 18 18 18 16 15 14 13 12 11 10 10 11 12 12 12 12 12 12 11 9 10 10 10 8 8 7 6 5 4 4 3 4 4 5 5 6 6 7
11 11 12 13 12 11 11 10 11 10 10 11 11 10 11 11 12 11 11 11 9 9 9 8 8 8 8 8 7 6 5 5 4 4 3 4 4 5 5 6 7 7 8 8
11 11 10 10 10 10 9 9 8 8 8 8 9 9 9 10 10 9 8 8 7 7 6 6 6 6 6 5 5 5 4 4 4 5 5 6 6 7 7 8 8 9 10 10
Wind_Direction
269 284 279 275 270 263 258 263 263 269 257 254 258 261 263 270 262 278 295 303 216 213 209 211 210 208 205 206 202 201 204 205 207 207 206 209 212 214 216 219 220 222 226 231
270 275 274 269 262 262 266 267 268 266 271 268 267 274 285 255 271 279 271 277 308 222 218 215 216 214 211 208 206 204 204 209 207 208 207 208 209 209 211 216 216 219 221 226
258 257 302 263 247 258 284 296 289 267 254 269 273 241 247 268 266 266 291 293 290 275 249 227 222 219 218 216 210 209 209 209 208 206 209 211 210 208 209 213 213 214 216 220
277 292 261 244 128 222 285 294 299 267 263 248 263 261 247 250 262 298 298 290 294 274 264 242 225 225 222 219 216 212 211 211 211 209 209 210 210 210 208 213 215 213 214 216
242 243 275 289 234 285 280 308 297 330 243 232 246 256 261 257 123 286 293 313 316 289 280 266 240 231 225 214 216 216 211 210 210 209 207 207 208 207 206 208 211 212 217 218
226 247 265 39 100 178 268 250 13 332 356 58 281 231 32 46 41 14 336 333 336 325 298 271 240 213 221 216 217 218 216 215 211 208 206 206 205 203 204 208 208 218 227 224
231 244 273 316 19 153 267 336 339 320 342 336 28 42 33 337 307 334 340 353 355 341 334 305 276 232 211 216 220 217 212 211 210 202 199 203 207 208 210 212 213 208 203 202
236 242 250 358 62 22 333 292 312 333 339 330 326 323 14 20 21 359 337 344 336 337 320 328 321 219 201 196 211 204 203 200 197 199 203 208 210 203 204 203 195 193 197 191
229 227 21 34 61 28 5 350 338 329 310 273 288 336 322 8 11 18 12 9 4 0 349 341 275 208 210 205 215 215 208 209 210 210 198 193 192 187 186 188 189 180 179 170
228 327 337 353 30 9 355 347 346 336 337 338 327 326 328 58 36 34 34 25 33 36 54 83 140 221 222 225 213 205 191 179 173 175 170 167 169 170 173 172 173 170 164 155
236 138 228 121 23 10 349 354 354 352 0 360 358 26 50 60 43 43 48 82 95 88 72 96 120 152 168 176 177 171 163 159 153 154 152 148 142 137 150 155 166 161 152 146
33 36 346 357 357 8 357 353 356 359 1 5 20 31 48 58 57 64 71 77 86 97 105 105 121 127 134 145 156 150 141 138 140 144 140 135 135 128 116 116 129 131 127 127
355 330 310 20 357 359 351 349 349 358 4 8 14 31 46 62 68 70 74 83 90 83 80 105 108 87 71 133 143 135 135 135 133 132 132 130 130 129 128 126 130 127 126 126
3 350 0 5 346 349 351 347 344 357 10 18 22 30 43 59 83 80 77 82 94 103 108 119 123 122 124 137 137 132 132 129 129 124 120 122 123 123 125 125 120 113 110 104
357 353 348 344 346 351 351 352 359 7 9 12 23 31 48 52 70 91 91 92 99 101 98 98 98 93 104 129 133 128 128 125 123 121 119 115 114 113 112 112 108 102 96 85
332 333 342 344 349 348 355 3 16 12 13 18 31 33 51 70 85 95 109 114 121 107 105 105 102 104 113 121 119 115 114 115 116 116 115 113 115 115 117 120 121 123 117 103
339 339 336 336 341 346 360 8 18 23 38 44 48 66 84 95 100 101 104 111 112 110 110 110 109 116 117 118 119 120 122 122 122 119 117 116 114 112 113 114 112 111 109 120
339 323 323 324 328 334 354 22 22 9 37 103 125 121 112 111 106 106 103 106 113 110 105 107 113 115 114 112 112 113 115 114 115 113 112 108 104 101 97 94 90 85 76 81
2 0 355 358 358 12 38 51 58 78 118 143 140 123 119 115 112 109 111 104 97 95 91 103 111 111 110 110 110 107 106 105 101 96 97 99 96 92 89 90 91 90 85 78
16 22 34 37 48 58 77 82 94 105 109 124 125 122 114 108 109 110 114 98 83 83 93 97 100 99 98 101 103 102 102 101 98 98 95 87 86 88 95 98 93 86 76 65
36 41 52 58 66 79 92 104 113 117 126 130 128 121 118 118 114 101 98 92 86 85 91 94 91 89 95 96 97 97 97 96 95 92 91 89 89 90 90 86 82 79 67 50
54 67 75 79 83 86 88 97 106 111 112 110 108 109 107 100 103 106 101 89 86 86 88 94 92 91 93 93 94 95 94 92 91 92 90 90 89 89 87 82 71 56 41 27
71 77 84 88 91 96 104 107 111 114 112 111 111 111 110 111 106 96 87 84 88 97 96 95 93 94 97 92 90 89 89 91 91 91 90 89 86 83 76 74 51 29 3 354
87 88 90 95 96 96 94 97 102 103 103 102 99 93 86 86 84 84 89 92 94 100 100 98 95 94 94 92 92 87 86 85 84 83 79 78 69 57 40 13 360 351 340 335
91 91 89 90 91 91 98 100 99 94 93 88 84 84 91 97 100 100 100 100 101 97 96 94 91 91 88 85 84 82 78 77 77 74 66 51 31 7 350 334 329 326 320 318
96 94 97 104 97 97 95 93 88 82 76 76 78 79 85 91 96 98 100 101 98 96 94 92 85 75 73 71 67 64 60 51 39 28 9 348 335 323 318 318 317 315 315 316
87 85 87 87 85 89 91 91 87 83 86 94 96 91 92 96 100 100 100 98 94 87 79 73 68 59 54 48 41 33 22 9 354 338 329 324 320 315 315 315 315 314 314 317
Height
1409 1402 1403 1399 1398 1396 1394 1392 1392 1385 1378 1372 1370 1368 1371 1368 1369 1374 1375 1374 1376 1378 1380 1384 1387 1391 1394 1397 1400 1406 1411 1413 1415 1419 1425 1431 1435 1439 1444 1448 1453 1458 1462 1466
1412 1405 1402 1398 1393 1389 1384 1385 1383 1382 1375 1365 1364 1365 1365 1366 1368 1370 1371 1371 1374 1375 1377 1379 1382 1385 1389 1392 1395 1400 1403 1406 1412 1415 1420 1423 1427 1431 1436 1440 1445 1450 1454 1458
1419 1404 1398 1397 1387 1382 1382 1380 1378 1375 1371 1365 1362 1361 1366 1367 1368 1368 1367 1370 1372 1374 1374 1375 1378 1381 1384 1388 1392 1393 1398 1402 1406 1409 1413 1418 1422 1425 1429 1432 1437 1440 1446 1450
1420 1415 1413 1385 1383 1390 1390 1389 1380 1371 1360 1360 1358 1358 1361 1362 1362 1366 1369 1372 1371 1370 1372 1372 1373 1377 1380 1383 1387 1388 1392 1396 1400 1402 1406 1411 1416 1419 1423 1426 1429 1434 1438 1441
1421 1409 1396 1387 1379 1386 1386 1385 1377 1357 1346 1351 1353 1355 1356 1359 1364 1369 1372 1372 1369 1367 1366 1366 1365 1371 1375 1378 1381 1385 1385 1389 1393 1396 1400 1405 1409 1414 1419 1419 1419 1424 1429 1432
1413 1410 1395 1383 1380 1387 1386 1382 1384 1376 1358 1353 1356 1362 1367 1364 1367 1370 1371 1370 1366 1364 1361 1360 1363 1364 1371 1372 1377 1380 1384 1387 1391 1393 1397 1401 1405 1402 1403 1407 1412 1418 1422 1425
1412 1405 1395 1384 1380 1384 1388 1395 1390 1384 1374 1372 1361 1363 1370 1368 1369 1370 1370 1367 1364 1362 1360 1358 1358 1356 1363 1369 1374 1377 1379 1384 1388 1388 1391 1391 1392 1396 1400 1403 1407 1412 1415 1417
1408 1402 1402 1386 1380 1389 1398 1395 1392 1387 1383 1378 1371 1365 1364 1366 1368 1370 1370 1366 1361 1358 1355 1354 1354 1354 1360 1363 1367 1367 1362 1371 1375 1378 1380 1386 1391 1394 1396 1399 1403 1405 1408 1411
1391 1391 1398 1392 1394 1397 1396 1394 1392 1388 1382 1380 1371 1365 1365 1367 1370 1371 1368 1366 1362 1357 1354 1352 1352 1350 1354 1355 1361 1362 1365 1370 1373 1380 1381 1384 1388 1390 1394 1397 1398 1402 1406 1408
1403 1397 1398 1397 1399 1398 1397 1395 1390 1387 1378 1374 1370 1366 1365 1368 1372 1372 1369 1368 1365 1362 1356 1358 1353 1356 1359 1360 1359 1360 1362 1366 1367 1376 1377 1380 1385 1384 1393 1399 1400 1401 1406 1408
1381 1395 1394 1402 1400 1402 1400 1395 1390 1386 1382 1380 1375 1372 1370 1373 1373 1372 1369 1369 1367 1366 1358 1358 1358 1360 1361 1362 1360 1361 1362 1367 1367 1376 1379 1380 1385 1387 1395 1397 1405 1407 1410 1409
1392 1400 1401 1397 1400 1401 1400 1398 1394 1390 1385 1383 1380 1378 1376 1373 1372 1371 1370 1371 1370 1366 1364 1365 1363 1362 1366 1366 1365 1363 1364 1369 1371 1375 1379 1380 1385 1387 1399 1406 1408 1411 1417 1415
1405 1405 1404 1403 1402 1402 1400 1396 1393 1390 1388 1385 1384 1380 1378 1375 1374 1374 1374 1373 1372 1372 1369 1368 1367 1368 1371 1370 1370 1366 1369 1373 1379 1384 1381 1383 1389 1391 1397 1408 1411 1413 1418 1418
1408 1404 1400 1402 1403 1401 1398 1397 1395 1392 1389 1388 1387 1384 1380 1380 1378 1376 1376 1377 1377 1376 1372 1373 1372 1372 1375 1377 1375 1374 1376 1380 1383 1388 1390 1391 1393 1397 1402 1408 1415 1418 1423 1426
1409 1409 1408 1406 1404 1400 1399 1397 1395 1392 1391 1391 1388 1386 1385 1384 1381 1378 1380 1380 1380 1379 1378 1379 1379 1379 1382 1382 1381 1383 1385 1387 1390 1394 1399 1403 1404 1407 1411 1416 1419 1424 1427 1429
1412 1410 1409 1408 1407 1404 1401 1398 1395 1394 1394 1394 1390 1388 1388 1387 1385 1383 1383 1385 1384 1383 1383 1384 1383 1386 1389 1390 1390 1391 1394 1398 1400 1403 1408 1410 1413 1413 1416 1420 1423 1426 1429 1432
1412 1409 1408 1407 1406 1404 1401 1399 1398 1397 1396 1394 1391 1392 1391 1390 1388 1388 1389 1391 1389 1389 1388 1388 1390 1392 1395 1397 1396 1398 1401 1405 1407 1409 1412 1417 1418 1420 1421 1423 1424 1428 1430 1433
1414 1412 1410 1408 1406 1405 1403 1400 1398 1397 1395 1395 1395 1395 1394 1394 1392 1394 1397 1401 1398 1394 1396 1397 1398 1400 1400 1402 1404 1406 1409 1412 1414 1416 1417 1419 1421 1424 1425 1427 1429 1430 1431 1432
1412 1410 1408 1407 1406 1405 1404 1401 1399 1399 1398 1397 1398 1398 1399 1400 1401 1400 1399 1409 1403 1401 1404 1406 1406 1406 1405 1407 1409 1411 1414 1416 1417 1419 1421 1422 1423 1426 1428 1429 1430 1432 1434 1434
1412 1411 1409 1407 1406 1405 1404 1403 1402 1402 1403 1403 1403 1404 1405 1408 1410 1409 1408 1412 1409 1412 1412 1411 1412 1411 1411 1412 1413 1414 1416 1418 1419 1420 1423 1423 1425 1426 1428 1431 1433 1433 1435 1435
1415 1413 1411 1410 1408 1407 1406 1407 1407 1406 1407 1408 1408 1407 1410 1410 1412 1414 1416 1413 1415 1418 1417 1415 1416 1417 1416 1416 1416 1417 1419 1419 1421 1423 1425 1427 1428 1429 1431 1432 1432 1433 1433 1433
1418 1417 1415 1414 1413 1412 1413 1412 1412 1413 1414 1415 1415 1415 1416 1418 1418 1417 1419 1421 1422 1423 1421 1421 1421 1421 1420 1419 1420 1421 1421 1423 1424 1427 1428 1430 1431 1431 1431 1432 1432 1433 1434 1434
1421 1420 1419 1418 1418 1417 1418 1418 1418 1419 1419 1420 1420 1420 1420 1422 1425 1425 1424 1427 1428 1428 1426 1425 1425 1424 1424 1424 1424 1425 1425 1427 1428 1429 1431 1431 1432 1432 1432 1433 1433 1432 1432 1432
1426 1425 1425 1425 1425 1424 1423 1425 1425 1425 1425 1425 1426 1427 1427 1428 1429 1429 1430 1431 1431 1430 1429 1428 1428 1428 1427 1428 1427 1430 1430 1431 1432 1432 1433 1433 1433 1434 1433 1433 1433 1431 1431 1430
1430 1430 1431 1431 1430 1430 1430 1430 1430 1431 1431 1430 1430 1430 1430 1432 1432 1433 1433 1434 1434 1434 1433 1433 1433 1433 1432 1432 1432 1434 1434 1434 1434 1434 1434 1434 1434 1434 1433 1433 1431 1430 1430 1429
1435 1435 1435 1435 1436 1435 1435 1435 1435 1436 1435 1434 1434 1435 1435 1435 1435 1436 1436 1437 1437 1437 1437 1437 1436 1436 1435 1435 1436 1436 1436 1436 1436 1435 1435 1435 1434 1433 1432 1431 1430 1429 1428 1427
1438 1438 1438 1438 1438 1438 1439 1439 1439 1439 1438 1439 1439 1439 1438 1439 1439 1439 1439 1440 1439 1439 1439 1438 1438 1438 1438 1437 1438 1438 1437 1437 1436 1435 1435 1434 1433 1432 1431 1430 1428 1427 1426 1424